slypieguy's sites:

title views votes rating creation
?The Jihad's Next Target 5,820 147 (3.62)  2006-08-27
?Medieval tech support is NOT the answer.. 2,405 40 (3.88)  2006-08-28
?Some call it Ernesto... 618 21 (3.33)  2006-08-29
?test 302 10 (2.20)  2006-08-29
?lol, DUI 719 20 (2.75)  2006-08-31
?That's the law 521 13 (3.46)  2006-08-31
?Scientology is NOT the answer 680 28 (3.61)  2006-08-31
?It's HOT 841 31 (3.61)  2006-09-01
?Asian happy cat 4,049 54 (3.96)  2006-09-01
?Gravity cat is... stuck 1,674 42 (3.48)  2006-09-01
?omg breaking news 505 20 (2.90)  2006-09-01
?Remember old school fundamentals 1,073 26 (3.42)  2006-09-01
?Pluto will fight! v.3 526 18 (3.72)  2006-09-02
?GAYTMND soap dispenser 912 25 (3.28)  2006-09-02
?Howard Dean is... 7,076 65 (4.28)  2006-09-02
?System of a Down Paradox 846 28 (2.82)  2006-09-02
?You have one of those? (attempted loop) 4,143 105 (3.70)  2006-09-03
?Now you're bakin' me toasty 732 21 (3.48)  2006-09-03
?Damn Tokyo DoT 505 18 (3.00)  2006-09-03
?Tragedy on Sesame St. 856 25 (3.20)  2006-09-04
?Tribute to Wayne Static and Serj Tankian 1,218 19 (3.42)  2006-09-04
?Homer forgot Poland 584 35 (3.17)  2006-09-05
?How to REALLY impress samurai 14,419 459 (4.07)  2006-09-06
?Cyberman Raves 568 37 (3.59)  2006-09-08
?OMG secret Jewish textbook 3,140 101 (3.77)  2006-09-08
?Gandalf learns of the Senate immigration bill 813 15 (3.53)  2006-09-08
?lazyPod 2.0 (100% less out of tune) 1,028 46 (3.83)  2006-09-13
?Bazooka girl! 1,117 29 (3.83)  2006-09-13
?Mankind is Doomed (maybe) 11,238 398 (3.98)  2006-09-18
?J-pop Explained 2,223 148 (3.78)  2006-09-19
?Nelson draws futurama's existence 12,257 465 (3.95)  2006-09-20
?Max trying to tell us something? 528 20 (3.65)  2006-09-24
?Bazooka Girl 2.0 (in battle) 1,085 20 (3.95)  2006-09-24
?Need Directions?? 651 27 (3.89)  2006-10-28
?(nsfw) Playing with the wii (lol, pun) 22,488 422 (4.02)  2006-11-10
?Excelite and torn lions 2,172 46 (3.83)  2006-11-11
?Secret is Out, Alternate Ending 1,090 58 (3.78)  2006-11-30
?Nagin Addresses Congress (now with echo) 5,899 330 (4.20)  2007-01-07
?OMG Secret Sony Crop Circle 822 40 (3.73)  2007-01-11
?SEGA had ONE weakness... 1,833 69 (3.74)  2007-01-11
?Silly Boris 863 31 (3.84)  2007-01-15
?(nsfw) Nigga Betrayed the Law (undubbed version) 6,197 216 (4.05)  2007-01-22
?Hey bud... how would you like to buy... 971 42 (3.86)  2007-02-05
?300TMND: This is.. 928 45 (3.58)  2007-02-19
?(nsfw) Seriously... stop looking 7,740 301 (3.82)  2007-02-20
?New Mcdonalds Ad 392 12 (1.83)  2007-02-22
?Pardon me... 741 36 (3.67)  2007-04-08
?A superior tornado warning 17,477 529 (4.31)  2007-04-27
?PTKFGS: Liberty Guaranteed 5,273 101 (3.95)  2007-05-22
?Hillary's New Tax Proposal 6,078 119 (3.36)  2007-06-02
?Poland's distant relative 797 16 (3.19)  2007-08-22
?CramerTMND: Open the window 744 10 (3.90)  2007-08-24
?A superior HURRICANE warning 483 15 (3.53)  2007-08-24
?Ron Paul rEVOLution 2,906 29 (3.62)  2007-08-25
?Gandalf discovers a new talent 814 21 (3.52)  2007-08-26
?Tomorrow's weather calls for... WTF?! 614 17 (3.82)  2007-08-26
?When roflcat stops laughing... 449 13 (1.38)  2007-09-15
?I went to UF and all I got was tasered 915 15 (3.53)  2007-09-18
?Is America ready for a bat president? 11,230 347 (3.90)  2007-09-26
?A threat ignored 709 8 (2.00)  2007-10-21
?Hitler is not the magic word 2,125 16 (3.25)  2007-11-29
?Feature user is credit to team 543 19 (2.53)  2008-04-28
?McCain'd 987 34 (3.53)  2008-10-16
?Max's solution to featured users 465 10 (3.00)  2008-12-05
?It's the end of the Brak as we know it 423 8 (3.25)  2008-12-05
?Epic Max Maneuver 512 11 (2.82)  2008-12-07
?TOURNAMENTMND1: Guess what Chad 632 19 (2.79)  2008-12-08
?Greed Stares Into Your Soul 744 14 (3.21)  2008-12-11
?(nsfw) The Jap Fapper (press esc to fap) 2,600 18 (3.61)  2008-12-15
?TOURNAMENTMND2: Finish him! 602 17 (3.65)  2009-01-15